Regional Weather Roundup
Issued by NWS

Home | Current Version | Previous Version | Text Only | Print | Product List | Glossary Off
Versions: 1 2 3 4 5 6 7 8 9 10 11 12 13 14 15 16 17 18 19 20 21 22 23 24 25 26 27 28 29 30 31 32 33 34 35 36 37 38 39 40 41 42 43 44 45 46 47 48 49 50

000
ASUS45 KCYS 300310
RWRWY

WYOMING REGIONAL WEATHER ROUNDUP
NATIONAL WEATHER SERVICE CHEYENNE WY
900 PM MDT MON JUN 29 2015

NOTE:  "FAIR" INDICATES FEW OR NO CLOUDS BELOW 12,000 FEET
WITH NO SIGNIFICANT WEATHER AND/OR OBSTRUCTIONS TO VISIBILITY.

WYZ001-300400-
YELLOWSTONE NATIONAL PARK

CITY           SKY/WX    TMP DP  RH WIND       PRES   REMARKS
LK YELLOWSTONE   N/A     64  46  52 W8        30.44R
W YELLOWSTONE  NOT AVBL

$$
WYZ002>013-054>058-071-098>099-300400-
NORTHERN WYOMING

CITY           SKY/WX    TMP DP  RH WIND       PRES   REMARKS
JACKSON        FAIR      75  52  43 N16G24    30.22R
CODY           FAIR      82  43  24 NW8       30.13R
GREYBULL       FAIR      90  36  14 SE3       30.00S
WORLAND        FAIR      78  40  25 SE7       30.03S
SHERIDAN       FAIR      73  59  61 S5        30.06R
BUFFALO        FAIR      74  51  44 W8        30.15S
GILLETTE       FAIR      70  57  63 CALM      30.10S
HULETT         FAIR      73  52  46 S6        30.10S
NEWCASTLE      FAIR      72  55  56 E6        30.11S

$$
WYZ014>020-022>026-101>103-300400-
CENTRAL WYOMING

CITY           SKY/WX    TMP DP  RH WIND       PRES   REMARKS
BIG PINEY      FAIR      75  57  53 W3        30.28S
PINEDALE       FAIR      77  45  31 CALM      30.29S
DUBOIS         FAIR      72  41  33 S3        30.31R
LANDER         FAIR      76  48  37 SW12      30.15S
RIVERTON       FAIR      82  34  17 NE5       30.15F
CASPER         FAIR      78  42  27 E10       30.18S
DOUGLAS        FAIR      68  50  52 E6        30.17R

$$
WYZ021-027>030-104>119-300400-
SOUTHERN WYOMING

CITY           SKY/WX    TMP DP  RH WIND       PRES   REMARKS
EVANSTON       FAIR      81  41  24 CALM      30.27S
KEMMERER       FAIR      75  36  23 E3        30.30S
FORT BRIDGER   CLEAR     79  39  24 SE8       30.29F
ROCK SPRINGS   NOT AVBL
DIXON          FAIR      74  37  25 NE12      30.27S
RAWLINS        FAIR      72  37  28 NE10      30.29S
SARATOGA       FAIR      72  41  33 N3        30.31S
LARAMIE        FAIR      67  43  41 E5        30.34S
CHEYENNE       FAIR      74  43  32 CALM      30.26R
TORRINGTON     FAIR      75  54  47 E10       30.10R
PINE BLUFFS    FAIR      72  54  53 S7        30.19R

$$


USA.gov is the U.S. government's official web portal to all federal, state and local government web resources and services.